When you browse on this site, cookies collect data to enhance your experience and personalize the content and advertising you see.
Visit our Privacy Policy to learn more. By continuing to use the site, you agree to this use of cookies and data.
  • Em Portugal
  • Lista de países
  • Para 7 dias
  • Temperatura da água
  • Mapas de satélite
  • Mapa do tempo
  • Widgets de tempo
  • user-avatar
    Iniciar Sessão

    Previsão horária em Stajkowo

    Hoje, 21 Março, Quinta-feira

    Tempo Temperatura Precipitação Vento Pressão Humidade
    00:00 +6°C° 0 mm 5 m/s 770 mmHg 93%
    01:00 +6°C° 0 mm 4 m/s 770 mmHg 94%
    02:00 +6°C° 0 mm 4 m/s 770 mmHg 94%
    03:00 +6°C° 0 mm 4 m/s 770 mmHg 95%
    04:00 +5°C° 0 mm 4 m/s 770 mmHg 95%
    05:00 +5°C° 0 mm 4 m/s 770 mmHg 95%
    06:00 +5°C° 0 mm 4 m/s 770 mmHg 94%
    07:00 +5°C° 0 mm 4 m/s 770 mmHg 94%
    08:00 +6°C° 0 mm 5 m/s 770 mmHg 93%
    09:00 +6°C° 0 mm 5 m/s 770 mmHg 92%
    10:00 +6°C° 0 mm 5 m/s 770 mmHg 91%
    11:00 +7°C° 0 mm 5 m/s 770 mmHg 87%
    12:00 +8°C° 0 mm 5 m/s 770 mmHg 84%
    13:00 +9°C° 0 mm 6 m/s 770 mmHg 83%
    14:00 +9°C° 0 mm 6 m/s 770 mmHg 84%
    15:00 +9°C° 0 mm 5 m/s 770 mmHg 84%
    16:00 +9°C° 0 mm 5 m/s 769 mmHg 85%
    17:00 +9°C° 0 mm 5 m/s 769 mmHg 87%
    18:00 +9°C° 0 mm 5 m/s 769 mmHg 88%
    19:00 +8°C° 0 mm 5 m/s 770 mmHg 90%
    20:00 +8°C° 0 mm 5 m/s 770 mmHg 90%
    21:00 +8°C° 0 mm 5 m/s 770 mmHg 89%
    22:00 +8°C° 0 mm 5 m/s 770 mmHg 89%
    23:00 +7°C° 0 mm 5 m/s 770 mmHg 90%

    Amanhã, 22 Março, Sexta-feira

    Tempo Temperatura Precipitação Vento Pressão Humidade
    00:00 +7°C° 0 mm 5 m/s 770 mmHg 92%
    01:00 +7°C° 0 mm 4 m/s 770 mmHg 93%
    02:00 +6°C° 0 mm 4 m/s 771 mmHg 93%
    03:00 +6°C° 0 mm 4 m/s 771 mmHg 94%
    04:00 +7°C° 0 mm 3 m/s 771 mmHg 95%
    05:00 +7°C° 0 mm 2 m/s 771 mmHg 95%
    06:00 +7°C° 0 mm 2 m/s 772 mmHg 95%
    07:00 +8°C° 0 mm 1 m/s 772 mmHg 95%
    08:00 +9°C° 0 mm 1 m/s 772 mmHg 90%
    09:00 +10°C° 0 mm 1 m/s 772 mmHg 85%
    10:00 +11°C° 0 mm 1 m/s 773 mmHg 79%
    11:00 +12°C° 0 mm 1 m/s 773 mmHg 76%
    12:00 +12°C° 0 mm 0 m/s 773 mmHg 73%
    13:00 +12°C° 0 mm 0 m/s 773 mmHg 70%
    14:00 +12°C° 0 mm 0 m/s 772 mmHg 69%
    15:00 +14°C° 0 mm 1 m/s 772 mmHg 68%
    16:00 +14°C° 0 mm 1 m/s 772 mmHg 68%
    17:00 +13°C° 0 mm 1 m/s 771 mmHg 72%
    18:00 +12°C° 0 mm 1 m/s 771 mmHg 77%
    19:00 +10°C° 0 mm 2 m/s 771 mmHg 82%
    20:00 +9°C° 0 mm 2 m/s 770 mmHg 84%
    21:00 +9°C° 0 mm 2 m/s 770 mmHg 85%
    22:00 +9°C° 0 mm 3 m/s 770 mmHg 87%
    23:00 +9°C° 0 mm 3 m/s 769 mmHg 89%

    Depois de amanhã, 23 Março, Sábado

    Tempo Temperatura Precipitação Vento Pressão Humidade
    00:00 +8°C° 0 mm 3 m/s 769 mmHg 90%
    01:00 +8°C° 0 mm 3 m/s 769 mmHg 92%
    02:00 +7°C° 0 mm 4 m/s 768 mmHg 92%
    03:00 +7°C° 0 mm 4 m/s 767 mmHg 92%
    04:00 +7°C° 0 mm 4 m/s 767 mmHg 93%
    05:00 +7°C° 0 mm 4 m/s 767 mmHg 92%
    06:00 +7°C° 0 mm 4 m/s 766 mmHg 91%
    07:00 +7°C° 0 mm 4 m/s 766 mmHg 91%
    08:00 +10°C° 0 mm 4 m/s 766 mmHg 85%
    09:00 +12°C° 0 mm 4 m/s 766 mmHg 79%
    10:00 +13°C° 0 mm 4 m/s 765 mmHg 74%
    11:00 +14°C° 0 mm 4 m/s 765 mmHg 72%
    12:00 +14°C° 0 mm 5 m/s 765 mmHg 71%
    13:00 +15°C° 0 mm 6 m/s 765 mmHg 69%
    14:00 +13°C° 0 mm 6 m/s 765 mmHg 72%
    15:00 +11°C° 0 mm 6 m/s 765 mmHg 74%
    16:00 +9°C° 0 mm 6 m/s 766 mmHg 77%
    17:00 +8°C° 0 mm 5 m/s 766 mmHg 76%
    18:00 +7°C° 0 mm 5 m/s 767 mmHg 76%
    19:00 +6°C° 0 mm 5 m/s 767 mmHg 75%
    20:00 +6°C° 0 mm 4 m/s 768 mmHg 73%
    21:00 +5°C° 0 mm 4 m/s 768 mmHg 71%
    22:00 +4°C° 0 mm 4 m/s 768 mmHg 70%
    23:00 +4°C° 0 mm 3 m/s 769 mmHg 71%

    24 Março, Domingo

    Tempo Temperatura Precipitação Vento Pressão Humidade
    00:00 +4°C° 0 mm 3 m/s 769 mmHg 72%
    01:00 +3°C° 0 mm 3 m/s 769 mmHg 73%
    02:00 +3°C° 0 mm 3 m/s 769 mmHg 74%
    03:00 +3°C° 0 mm 3 m/s 769 mmHg 76%
    04:00 +3°C° 0 mm 3 m/s 769 mmHg 77%
    05:00 +3°C° 0 mm 3 m/s 769 mmHg 77%
    06:00 +3°C° 0 mm 3 m/s 769 mmHg 77%
    07:00 +3°C° 0 mm 3 m/s 769 mmHg 78%
    08:00 +4°C° 0 mm 4 m/s 769 mmHg 74%
    09:00 +5°C° 0 mm 4 m/s 769 mmHg 70%
    10:00 +6°C° 0 mm 5 m/s 769 mmHg 66%
    11:00 +6°C° 0 mm 5 m/s 769 mmHg 66%
    12:00 +6°C° 0 mm 5 m/s 769 mmHg 65%
    13:00 +6°C° 0 mm 5 m/s 769 mmHg 64%
    14:00 +6°C° 0 mm 5 m/s 768 mmHg 64%
    15:00 +6°C° 0 mm 5 m/s 768 mmHg 63%
    16:00 +5°C° 0 mm 6 m/s 768 mmHg 62%
    17:00 +5°C° 0 mm 5 m/s 768 mmHg 67%
    18:00 +4°C° 0 mm 4 m/s 768 mmHg 72%
    19:00 +3°C° 0 mm 4 m/s 767 mmHg 78%
    20:00 +3°C° 0 mm 4 m/s 767 mmHg 78%
    21:00 +3°C° 0 mm 4 m/s 767 mmHg 78%
    22:00 +3°C° 0 mm 4 m/s 767 mmHg 78%
    23:00 +2°C° 0 mm 5 m/s 767 mmHg 78%

    25 Março, Segunda-feira

    Tempo Temperatura Precipitação Vento Pressão Humidade
    00:00 +2°C° 0 mm 5 m/s 766 mmHg 79%
    01:00 +2°C° 0 mm 6 m/s 766 mmHg 79%
    02:00 +1°C° 0 mm 6 m/s 766 mmHg 82%
    03:00 +1°C° 0 mm 6 m/s 765 mmHg 84%
    04:00 +1°C° 0 mm 6 m/s 764 mmHg 87%
    05:00 0°C° 0.2 mm 7 m/s 764 mmHg 86%
    06:00 0°C° 0.2 mm 7 m/s 763 mmHg 85%
    07:00 +1°C° 0.2 mm 8 m/s 763 mmHg 84%
    08:00 +1°C° 0.6 mm 9 m/s 762 mmHg 81%
    09:00 +2°C° 0.6 mm 9 m/s 762 mmHg 78%
    10:00 +3°C° 0.6 mm 10 m/s 762 mmHg 74%
    11:00 +3°C° 0.3 mm 10 m/s 761 mmHg 70%
    12:00 +5°C° 0.3 mm 10 m/s 761 mmHg 65%
    13:00 +5°C° 0.3 mm 10 m/s 761 mmHg 60%
    14:00 +5°C° 0.2 mm 10 m/s 761 mmHg 59%
    15:00 +3°C° 0.2 mm 10 m/s 761 mmHg 59%
    16:00 +3°C° 0.2 mm 10 m/s 760 mmHg 58%
    17:00 +3°C° 0 mm 9 m/s 761 mmHg 60%
    18:00 +2°C° 0 mm 9 m/s 761 mmHg 62%
    19:00 +1°C° 0 mm 8 m/s 761 mmHg 64%
    20:00 +2°C° 0 mm 8 m/s 762 mmHg 65%
    21:00 +3°C° 0 mm 7 m/s 762 mmHg 66%
    22:00 +3°C° 0 mm 7 m/s 763 mmHg 68%
    23:00 +3°C° 0 mm 6 m/s 763 mmHg 73%

    26 Março, Terça-feira

    Tempo Temperatura Precipitação Vento Pressão Humidade
    00:00 +2°C° 0 mm 5 m/s 764 mmHg 78%
    01:00 +1°C° 0 mm 5 m/s 765 mmHg 83%
    02:00 +1°C° 0 mm 4 m/s 766 mmHg 84%
    03:00 +1°C° 0 mm 4 m/s 766 mmHg 86%
    04:00 +1°C° 0 mm 4 m/s 767 mmHg 87%
    05:00 +1°C° 0 mm 4 m/s 767 mmHg 87%
    06:00 +2°C° 0 mm 3 m/s 768 mmHg 87%
    07:00 +2°C° 0 mm 3 m/s 768 mmHg 87%
    08:00 +3°C° 0 mm 3 m/s 769 mmHg 79%
    09:00 +4°C° 0 mm 3 m/s 769 mmHg 71%
    10:00 +7°C° 0 mm 3 m/s 770 mmHg 64%
    11:00 +6°C° 0 mm 4 m/s 770 mmHg 60%
    12:00 +7°C° 0 mm 4 m/s 770 mmHg 56%
    13:00 +7°C° 0 mm 4 m/s 770 mmHg 52%
    14:00 +7°C° 0 mm 5 m/s 769 mmHg 54%
    15:00 +7°C° 0 mm 5 m/s 769 mmHg 55%
    16:00 +7°C° 0 mm 5 m/s 768 mmHg 56%
    17:00 +6°C° 0 mm 5 m/s 768 mmHg 61%
    18:00 +5°C° 0 mm 4 m/s 768 mmHg 65%
    19:00 +4°C° 0 mm 4 m/s 768 mmHg 70%
    20:00 +4°C° 0 mm 4 m/s 768 mmHg 75%
    21:00 +5°C° 0 mm 5 m/s 767 mmHg 80%
    22:00 +4°C° 0 mm 6 m/s 767 mmHg 85%
    23:00 +5°C° 0 mm 5 m/s 767 mmHg 84%
    Mostrar mais